Regional Weather Roundup
Issued by NWS

Home | Current Version | Previous Version | Text Only | Print | Product List | Glossary Off
Versions: 1 2 3 4 5 6 7 8 9 10 11 12 13 14 15 16 17 18 19 20 21 22 23 24 25 26 27 28 29 30 31 32 33 34 35 36 37 38 39 40 41 42 43 44 45 46 47 48 49 50

364
ASUS45 KPSR 251610
RWRAZ

ARIZONA HOURLY REGIONAL WEATHER ROUNDUP
NATIONAL WEATHER SERVICE PHOENIX AZ
900 AM MST SUN JUN 25 2017

NOTE: FAIR INDICATES FEW OR NO CLOUDS BELOW 12,000 FEET WITH NO
SIGNIFICANT WEATHER AND/OR OBSTRUCTIONS TO VISIBILITY.

AZZ001>003-036-251700-
NORTHWEST ARIZONA

CITY           SKY/WX    TMP DP  RH WIND       PRES   REMARKS
BULLHEAD CITY  SUNNY    102  36  10 SW6       29.78S
KINGMAN        PTSUNNY   98  40  13 E17       30.02F
$$

AZZ004>008-015-016-018-251700-
NORTH CENTRAL ARIZONA

CITY           SKY/WX    TMP DP  RH WIND       PRES   REMARKS
GRAND CANYON   MOSUNNY   84  29  13 W7        30.33R
PRESCOTT       SUNNY     89  41  18 SE13      30.19S
FLAGSTAFF      MOSUNNY   79  38  22 S6        30.35S
PAYSON         MOSUNNY   82  48  30 CALM      30.26F
PAGE           MOSUNNY   85  24  11 VRB3      30.14S
$$

AZZ009>014-017-251700-
NORTHEAST ARIZONA

CITY           SKY/WX    TMP DP  RH WIND       PRES   REMARKS
WINSLOW        PTSUNNY   94  36  13 SW18G24   30.17F
SAINT JOHNS    MOSUNNY   86  45  23 CALM      30.24F
WINDOW ROCK    SUNNY     78  44  29 VRB6      30.34S
SHOW LOW       CLOUDY    70  46  43 SW13      30.35R
$$

AZZ540-542>544-546-548-251700-
GREATER PHOENIX AREA

CITY           SKY/WX    TMP DP  RH WIND       PRES   REMARKS
PHOENIX        PTSUNNY  100  54  21 SE17G24   29.86S
BUCKEYE        SUNNY     99  46  16 S5        29.87S
GLENDALE       MOSUNNY  100  55  22 SE6       29.88S
LUKE AFB       SUNNY    100  56  22 SE10      29.86S
DEER VALLEY    SUNNY    101  52  19 SE15G23   29.89R
SCOTTSDALE     SUNNY    101  50  18 SE10      29.91R
MESA-FALCON    MOSUNNY  102  55  21 E16G23    29.90R HX 101
MESA-GATEWAY   MOSUNNY  100  55  22 SE17      29.90S
CHANDLER       SUNNY     97  57  26 E14       29.88S
$$

AZZ539-553-251700-
SOUTHWEST MARICOPA COUNTY AND PINAL COUNTY

CITY           SKY/WX    TMP DP  RH WIND       PRES   REMARKS
CASA GRANDE    MOSUNNY  101  56  22 E10       29.91S HX 100
GILA BEND      FAIR     102  42  13 E3        29.84R
$$

AZZ503-504-507>509-251700-
SOUTHEAST ARIZONA

CITY           SKY/WX    TMP DP  RH WIND       PRES   REMARKS
TUCSON         MOSUNNY   96  52  22 SE10      30.04S
DAVIS-MONTHAN  MOSUNNY   94  52  23 S7        30.03R
NOGALES        PTSUNNY   88  53  30 NE5       30.13S
SIERRA VISTA   CLOUDY    85  50  29 SE6       30.22S
DOUGLAS        SUNNY     84  52  33 VRB3      30.17F
SAFFORD        MOSUNNY   85  52  32 SE9       30.12S
$$

AZZ532-251700-
SOUTHWEST ARIZONA

CITY           SKY/WX    TMP DP  RH WIND       PRES   REMARKS
YUMA           NOT AVBL
$$

CAZ041-043-047-048-061-525>527-560>570-251700-
SOUTHERN CALIFORNIA

CITY           SKY/WX    TMP DP  RH WIND       PRES   REMARKS
DOWNTOWN L.A.  SUNNY     75  61  61 CALM      29.90S
L.A. AIRPORT   MOSUNNY   70  62  76 SW5       29.91S
SAN DIEGO      MOSUNNY   69  62  78 NW9       29.90S
BURBANK        SUNNY     73  59  61 CALM      29.91S
ONTARIO        SUNNY     78  60  53 CALM      29.92S
RIVERSIDE      SUNNY     79  62  56 CALM      29.92S
PALM SPRINGS   SUNNY     97  59  28 E7        29.84R
EL CENTRO NAS  SUNNY     92  70  48 VRB5      29.78R
IMPERIAL       SUNNY     91  72  53 E7        29.76R
BLYTHE         MOSUNNY   96  59  29 S14       29.79R
NEEDLES        SUNNY    109  31   7 S7        29.80R HX 101
$$

NVZ020-UTZ003-251700-
SOUTHERN NEVADA-UTAH

CITY           SKY/WX    TMP DP  RH WIND       PRES   REMARKS
LAS VEGAS      MOSUNNY   99  13   4 VRB3      29.92R
SALT LAKE CITY SUNNY     80  43  26 VRB5      30.20S
$$

NMZ009-TXZ055-251700-
NEW MEXICO-WEST TEXAS

CITY           SKY/WX    TMP DP  RH WIND       PRES   REMARKS
ALBUQUERQUE    MOSUNNY   76  51  41 SW7       30.32S
EL PASO        PTSUNNY   82  63  52 SE8       30.23R
$$


........................KEY........................
SKY/WX - SKY CONDITION/WEATHER
TMP    - TEMPERATURE IN FAHRENHEIT
DP     - DEW POINT IN FAHRENHEIT
RH     - RELATIVE HUMIDITY IN PERCENT
WIND   - DIRECTION AND SPEED IN MILES PER HOUR (MPH)
VRB    - VARIABLE WIND DIRECTION
PRES   - MEAN SEA LEVEL PRESSURE IN INCHES OF MERCURY
         F - FALLING PRESSURE   R - RISING PRESSURE
         S - STEADY PRESSURE
VSB    - VISIBILITY IN MILES
HX     - HEAT INDEX IN FAHRENHEIT
WCI    - WIND CHILL INDEX IN FAHRENHEIT
TC     - TEMPERATURE IN CELSIUS WHICH IS ALSO KNOWN AS
         TEMPERATURE IN CENTIGRADE
AFB    - AIR FORCE BASE
         LUKE AFB IS LUKE AIR FORCE BASE
         DAVIS-MONTHAN IS DAVIS-MONTHAN AIR FORCE BASE
NAS    - NAVAL AIR STATION
         EL CENTRO NAS IS EL CENTRO NAVAL AIR STATION
N/A    - NOT AVAILABLE





USA.gov is the U.S. government's official web portal to all federal, state and local government web resources and services.